Regional Weather Roundup
Issued by NWS

Home | Current Version | Previous Version | Graphics & Text | Print | Product List | Glossary On
Versions: 1 2 3 4 5 6 7 8 9 10 11 12 13 14 15 16 17 18 19 20 21 22 23 24 25 26 27 28 29 30 31 32 33 34 35 36 37 38 39 40 41 42 43 44 45 46 47 48 49 50
000
ASUS43 KMPX 300901
RWRMN
WEATHER ROUNDUP FOR MINNESOTA
NATIONAL WEATHER SERVICE TWIN CITIES/CHANHASSEN MN
400 AM CDT TUE AUG 30 2016


NOTE: "FAIR" INDICATES FEW OR NO CLOUDS BELOW 12,000 FEET WITH NO
SIGNIFICANT WEATHER AND/OR OBSTRUCTIONS TO VISIBILITY. N/A MEANS
CURRENT SKY AND/OR WEATHER CONDITIONS ARE NOT AVAILABLE.

MNZ060>063-068>070-301000-
   Twin Cities Metro

CITY           SKY/WX    TMP DP  RH WIND       PRES   REMARKS
TWIN CITIES    CLOUDY    68  63  84 CALM      30.14F
ST PAUL        CLOUDY    68  64  87 N9        30.14F
CRYSTAL        CLOUDY    67  63  87 CALM      30.13R
BLAINE         CLOUDY    68  68 100 W5        30.15F
LAKEVILLE      LGT RAIN  64  64 100 S12       30.15F
EDEN PRAIRIE   LGT RAIN  68  64  87 S12       30.12F
LAKEVILLE      LGT RAIN  64  64 100 S12       30.15F
SOUTH ST PAUL  DRIZZLE   68  66  94 S9        30.13F
LAKE ELMO      FAIR      66  64  94 N10       30.16R
$$
MNZ001>005-007-008-013>017-022>024-027-028-301000-
   Northwest Minnesota

CITY           SKY/WX    TMP DP  RH WIND       PRES   REMARKS
BEMIDJI        CLEAR     49  49 100 CALM      30.24R FOG
HALLOCK        CLEAR     48  46  93 CALM      30.22S
ROSEAU         CLEAR     48  43  81 CALM      30.23R
WARROAD        CLEAR     48  45  87 CALM      30.23R
THIEF RVR FALL CLEAR     51  51 100 CALM      30.24S
CROOKSTON      CLEAR     52  48  87 CALM      30.23F
FOSSTON        CLEAR     46  45  93 CALM      30.25R FOG
DETROIT LAKES  CLEAR     59  55  88 N3        30.25S
MOORHEAD       CLEAR     52  50  93 CALM      30.24R
PARK RAPIDS    CLEAR     58  54  86 N6        30.22F
MAHNOMEN       FAIR      54  54  99 SE5       30.24R
$$
MNZ006-009>011-018-025>026-301000-
   North Central Minnesota

CITY           SKY/WX    TMP DP  RH WIND       PRES   REMARKS
BAUDETTE       CLEAR     50  49  96 SW3       30.21R
FLAG ISLAND    CLEAR     57  52  82 CALM      30.20R
INTL FALLS     CLEAR     45  44  97 CALM      30.20R
WASKISH        CLEAR     52  48  87 CALM      30.23R
BIG FORK       CLEAR     55  54  94 CALM      30.21S
LONGVILLE      CLEAR     57  55  94 NW3       30.20F
GRAND RAPIDS   PTCLDY    57  55  93 N8        30.20F
CRANE LAKE     CLEAR     52  52 100 S1        30.21R
ORR            CLEAR     57  55  94 CALM      30.17S
COOK           CLEAR     57  55  94 CALM      30.19S
WALKER         FAIR      54  54  99 NW6       30.22F
$$
MNZ012-019>021-037-301000-
   Northeast Minnesota

CITY           SKY/WX    TMP DP  RH WIND       PRES   REMARKS
DULUTH         CLOUDY    65  64  97 NW8       30.15S
ELY            CLEAR     59  57  94 N3        30.16S
HIBBING        CLOUDY    57  56  96 N5        30.18R
EVELETH        CLOUDY    63  60  91 NW3       30.18S
DULUTH HARBOR  CLOUDY    70  66  88 SW6       30.13S
TWO HARBORS    CLOUDY    68  63  83 CALM      30.11F
SILVER BAY     CLOUDY    66  64  94 CALM      30.11S
GRAND MARAIS     N/A     68  62  81 CALM      30.08R
G MARAIS ARPRT CLEAR     61  55  82 NW8       30.14F
$$
MNZ029>031-032-039>041-046>048-054>057-064-301000-
   West Central Minnesota

CITY           SKY/WX    TMP DP  RH WIND       PRES   REMARKS
FERGUS FALLS   PTCLDY    61  59  94 NE3       30.23S
WHEATON        CLEAR     59  57  94 CALM      30.24R
MORRIS         CLEAR     63  61  94 NW3       30.20S
ALEXANDRIA     CLEAR     64  61  90 N8        30.22S
ELBOW LAKE     FAIR      62  61  97 E5        30.22S
WADENA         CLEAR     57  55  94 VRB6      30.22R
GLENWOOD       CLEAR     63  63 100 N7        30.22R
APPLETON       PTCLDY    66  63  88 N5        30.19S
BENSON         PTCLDY    63  61  94 CALM      30.20R
ORTONVILLE     MOCLDY    64  61  88 CALM      30.20F
MADISON        CLOUDY    68  66  94 W3        30.20S
WILLMAR        FAIR      68  66  94 CALM      30.20S
$$
MNZ033>034-036-042>043-049>051-058-059-301000-
   Central Minnesota

CITY           SKY/WX    TMP DP  RH WIND       PRES   REMARKS
ST CLOUD       PTCLDY    64  64 100 N3        30.17F
SAUK CENTRE    FAIR      65  64  97 CALM      30.21R
PAYNESVILLE    CLOUDY    66  67 100 CALM      30.20S
AITKIN         PTCLDY    63  57  82 CALM      30.18F
PINE RIVER     CLEAR     61  59  94 NW7       30.23S
BRAINERD       CLEAR     63  60  90 N5        30.20S
STAPLES        CLEAR     57  57 100 CALM      30.21S
LONG PRAIRIE   FAIR      63  61  94 NW3       30.21R
LITTLE FALLS   CLOUDY    64  63  94 CALM      30.20R
LITCHFIELD     CLOUDY    68  66  94 N3        30.19R
BUFFALO        CLOUDY    66  64  91 W3        30.18S
MAPLE LAKE     CLOUDY    66  65  97 CALM      30.19S
HUTCHINSON     CLEAR     67  65  95 NE6       30.16F
$$
MNZ037-044-045-052-053-301000-
   East Central Minnesota

CITY           SKY/WX    TMP DP  RH WIND       PRES   REMARKS
PRINCETON      CLOUDY    64  63  94 CALM      30.17F
MORA           PTCLDY    61  59  94 CALM      30.19S
CAMBRIDGE      CLOUDY    66  61  82 NW5       30.15S
RUSH CITY      CLOUDY    64  62  95 CALM      30.16F
MOOSE LAKE     CLOUDY    64  63  94 W3        30.16R
HINCKLEY       FAIR      63  63 100 W3        30.17R
CLOQUET        CLOUDY    64  63  94 NW5       30.16S
MCGREGOR       PTCLDY    63  61  94 NW5       30.18F
$$
MNZ071>073-080-081-089-090-097-098-301000-
   Southwest Minnesota

CITY           SKY/WX    TMP DP  RH WIND       PRES   REMARKS
MONTEVIDEO     PTCLDY    68  66  94 CALM      30.20F
GRANITE FALLS  CLOUDY    70  67  91 E7        30.19F
CANBY          CLOUDY    70  67  91 W5        30.22S
MARSHALL       CLOUDY    70  69  97 NW5       30.20S
REDWOOD FALLS  CLOUDY    67  64  90 E12G21    30.18F
OLIVIA         CLOUDY    68  64  88 S10       30.17F THUNDER
PIPESTONE        N/A     72  68  88 NE5       30.21S
WINDOM         CLOUDY    68  64  88 NE15G24   30.23R
WORTHINGTON    CLOUDY    68  67  96 SW5       30.21F
JACKSON        CLOUDY    70  66  88 NW3       30.20S
TRACY          MOCLDY    70  67  90 E5        30.21S
SLAYTON        CLOUDY    70  68  94 N6        30.22S
$$
MNZ065>067-074>077-082>085-091>093-301000-
   South Central Minnesota

CITY           SKY/WX    TMP DP  RH WIND       PRES   REMARKS
NEW ULM        LGT RAIN  66  66 100 NW8       30.24R
ST JAMES       LGT RAIN  66  64  94 E8        30.22S
FAIRMONT       CLOUDY    69  67  93 NE17G25   30.21R
GLENCOE        LGT RAIN  66  66 100 S6        30.17R
FARIBAULT      CLOUDY    66  66 100 E3        30.19F
OWATONNA       LGT RAIN  68  64  88 E7        30.21F
WASECA         RAIN      68  63  83 N9        30.23S
ALBERT LEA     CLOUDY    70  68  94 N10       30.21R
$$
MNZ078>079-086>088-094>096-301000-
   Southeast Minnesota

CITY           SKY/WX    TMP DP  RH WIND       PRES   REMARKS
ROCHESTER      CLOUDY    70  69  97 N8        30.21F
RED WING       LGT RAIN  66  64  94 W6        30.17F
STANTON        CLOUDY    68  64  88 SE6       30.17F
DODGE CENTER   MOCLDY    66  64  94 N8        30.22S
WINONA         CLOUDY    70  68  94 CALM      30.18F
AUSTIN         CLOUDY    68  66  94 CALM      30.20S
PRESTON        FOG       68  67  96 N3        30.21S VSB 1/2
$$
ABBREVIATIONS USED IN REMARKS
   TC - TEMPERATURES IN CELSIUS
  WCI - WIND CHILL INDEX
   HX - HEAT INDEX
  VSB - VISIBILITY
$$



USA.gov is the U.S. government's official web portal to all federal, state and local government web resources and services.